GW6324 Weather Reports


time (UTC)temp
F
wind
direction
speed
knots
gust
knots
rain 1hr
in
rain 24hr
in
rain mn
in
humidity
%
barometer
mb
20260509024535 62 236 0.9 4.3 0.00 0.00 0.00 53 1009.3
20260509023036 62 236 0.9 4.3 0.00 0.00 0.00 53 1009.3
20260509021534 62 241 0.9 1.7 0.00 0.00 0.00 55 1009.2
20260509020043 62 240 0.9 1.7 0.00 0.00 0.00 54 1009.2
20260509014541 63 238 0.9 2.6 0.00 0.00 0.00 54 1009.2
20260509013036 63 232 0.0 1.7 0.00 0.00 0.00 54 1009.0
20260509011534 64 254 0.9 2.6 0.00 0.00 0.00 53 1009.0
20260509010043 64 235 0.9 5.2 0.00 0.00 0.00 51 1009.1
20260509004533 64 251 0.9 3.5 0.00 0.00 0.00 51 1008.9
20260509003034 65 264 1.7 3.5 0.00 0.00 0.00 51 1008.9
20260509001532 65 250 0.9 4.3 0.00 0.00 0.00 50 1008.8
20260509000034 65 251 1.7 4.3 0.00 0.00 0.00 50 1008.9
20260508234533 66 250 2.6 6.1 0.00 0.00 0.00 49 1008.9
20260508233035 66 237 1.7 3.5 0.00 0.00 0.00 51 1008.9
20260508231531 66 260 1.7 3.5 0.00 0.00 0.00 49 1009.0
20260508230030 67 259 1.7 6.1 0.00 0.00 0.00 49 1008.8
20260508224536 67 267 2.6 6.1 0.00 0.00 0.00 47 1008.8
20260508223035 67 265 2.6 10.4 0.00 0.00 0.00 47 1008.8
20260508221535 68 241 3.5 7.0 0.00 0.00 0.00 45 1008.7
20260508220107 68 230 1.7 8.7 0.00 0.00 0.00 47 1008.4
20260508214534 68 283 4.3 9.6 0.00 0.00 0.00 45 1008.7
20260508213038 71 225 4.3 10.4 0.00 0.00 0.00 41 1008.6
20260508211541 72 281 5.2 12.2 0.00 0.00 0.00 45 1008.8
20260508210036 70 259 4.3 9.6 0.00 0.00 0.00 44 1009.1
20260508204535 72 319 4.3 8.7 0.00 0.00 0.00 42 1009.2
20260508203033 70 290 4.3 10.4 0.00 0.00 0.00 44 1009.6
20260508201534 69 293 3.5 10.4 0.00 0.00 0.00 43 1009.9
20260508200036 70 245 5.2 9.6 0.00 0.00 0.00 41 1010.1
20260508194539 70 223 3.5 13.9 0.00 0.00 0.00 42 1010.2
20260508193035 72 239 3.5 13.0 0.00 0.00 0.00 41 1010.3
20260508191534 73 250 3.5 11.3 0.00 0.00 0.00 41 1010.4
20260508190043 74 252 4.3 10.4 0.00 0.00 0.00 43 1010.5
20260508184543 73 261 3.5 10.4 0.00 0.00 0.00 43 1010.7
20260508183035 71 271 7.0 12.2 0.00 0.00 0.00 42 1011.2
20260508181546 71 249 6.1 14.8 0.00 0.00 0.00 40 1011.5
20260508180034 72 256 5.2 13.0 0.00 0.00 0.00 38 1011.5
20260508174540 71 262 6.1 12.2 0.00 0.00 0.00 41 1011.6
20260508173033 70 170 3.5 13.0 0.00 0.00 0.00 46 1011.8
20260508171532 68 238 4.3 17.4 0.00 0.00 0.00 45 1012.2
20260508170036 67 252 5.2 12.2 0.00 0.00 0.00 43 1012.6
20260508164535 66 223 5.2 13.9 0.00 0.00 0.00 48 1012.8
20260508163038 65 249 6.1 13.0 0.00 0.00 0.00 45 1013.2
20260508161536 64 249 6.1 13.9 0.00 0.00 0.00 48 1013.3
20260508160036 64 269 4.3 13.9 0.00 0.00 0.00 49 1013.3
20260508154536 63 250 4.3 13.0 0.00 0.00 0.00 50 1013.5
20260508153036 62 194 5.2 9.6 0.00 0.00 0.00 53 1013.8
20260508151536 61 233 3.5 13.0 0.00 0.00 0.00 54 1014.0
20260508150035 61 236 5.2 13.9 0.00 0.00 0.00 54 1014.2
20260508144535 60 229 4.3 11.3 0.00 0.00 0.00 55 1014.2
20260508143030 59 223 3.5 12.2 0.00 0.00 0.00 56 1014.3
20260508141535 57 295 3.5 7.8 0.00 0.00 0.00 59 1014.4
20260508140038 55 252 5.2 9.6 0.00 0.00 0.00 60 1014.5
20260508134542 54 256 2.6 7.8 0.00 0.00 0.00 64 1014.6
20260508133035 52 246 4.3 10.4 0.00 0.00 0.00 64 1014.6
20260508131534 51 260 2.6 8.7 0.00 0.00 0.00 65 1014.7
20260508130035 50 266 1.7 4.3 0.00 0.00 0.00 68 1014.6
20260508124535 49 245 3.5 6.1 0.00 0.00 0.00 68 1014.4
20260508123035 49 233 1.7 6.1 0.00 0.00 0.00 69 1014.3
20260508121539 48 268 3.5 7.8 0.00 0.00 0.00 67 1014.1
20260508120035 48 225 2.6 5.2 0.00 0.00 0.00 69 1014.2
20260508114546 46 258 1.7 2.6 0.00 0.00 0.00 72 1014.1
20260508113040 44 231 0.9 1.7 0.00 0.00 0.00 75 1013.9
20260508111541 43 248 0.9 1.7 0.00 0.00 0.00 76 1013.8
20260508110034 43 233 0.9 1.7 0.00 0.00 0.00 75 1013.7
20260508104532 44 240 0.9 1.7 0.00 0.00 0.00 76 1013.6
20260508103037 44 238 0.0 1.7 0.00 0.00 0.00 74 1013.6
20260508101535 45 231 0.9 4.3 0.00 0.00 0.00 72 1013.6
20260508100035 45 246 0.9 1.7 0.00 0.00 0.00 72 1013.6
20260508094546 45 238 0.9 1.7 0.00 0.00 0.00 72 1013.5
20260508093035 45 241 0.9 1.7 0.00 0.00 0.00 72 1013.6
20260508091542 45 242 0.9 2.6 0.00 0.00 0.00 71 1013.5
20260508090038 45 231 0.9 2.6 0.00 0.00 0.00 70 1013.6
20260508084534 45 248 0.9 1.7 0.00 0.00 0.00 70 1013.6
20260508083035 46 237 0.9 1.7 0.00 0.00 0.00 70 1013.5
20260508081557 46 247 0.0 1.7 0.00 0.00 0.00 69 1013.5
20260508080033 46 241 0.9 3.5 0.00 0.00 0.00 69 1013.5
20260508074534 47 236 0.9 3.5 0.00 0.00 0.00 67 1013.6
20260508073030 47 250 0.9 3.5 0.00 0.00 0.00 67 1013.4
20260508071542 47 255 1.7 2.6 0.00 0.00 0.00 67 1013.4
20260508070035 47 238 0.9 4.3 0.00 0.00 0.00 67 1013.6
20260508064534 47 239 0.9 1.7 0.00 0.00 0.00 66 1014.0
20260508063046 47 242 0.9 2.6 0.00 0.00 0.00 66 1014.1
20260508061535 47 229 1.7 4.3 0.00 0.00 0.00 66 1014.2
20260508060037 47 238 1.7 2.6 0.00 0.00 0.00 64 1014.3
20260508054535 48 234 0.9 4.3 0.00 0.00 0.00 64 1014.3
20260508053039 47 236 1.7 4.3 0.00 0.00 0.00 64 1014.3
20260508051536 48 227 1.7 4.3 0.00 0.00 0.00 62 1014.3
20260508050036 48 246 1.7 3.5 0.00 0.00 0.00 63 1014.1
20260508044534 49 221 1.7 3.5 0.00 0.00 0.00 60 1014.2
20260508043034 49 240 1.7 3.5 0.00 0.00 0.00 59 1014.2
20260508041535 48 232 0.9 1.7 0.00 0.00 0.00 60 1014.1
20260508040040 48 223 0.9 1.7 0.00 0.00 0.00 60 1014.0
20260508034535 49 235 0.0 1.7 0.00 0.00 0.00 60 1014.2
20260508033034 48 240 0.0 1.7 0.00 0.00 0.00 61 1014.2
20260508031536 48 238 0.0 1.7 0.00 0.00 0.00 63 1014.2
20260508030034 48 0 0.0 1.7 0.00 0.00 0.00 67 1014.2